This demonstration page uses our WeatherBlox Daily Observations layout. Learn more.

Left ArrowRight Arrow

Hourly Observations for March 25, 2015

Temp ( °F °C ) Dew Point ( °F °C ) Humidity (%) Winds ( mph kmh ) Pressure ( in mb ) Visibility ( mi km ) Precip ( " mm )
12:15 am 00:15 Clear 43 6 30 -1 61 61 SE 12 19 30.06 1018 10 16 N/A
12:36 am 00:36 Partly Cloudy 43 6 30 -1 61 61 SE 15 24 30.03 1017 10 16 N/A
12:56 am 00:56 Partly Cloudy 43 6 32 undefined 66 66 SE 13 20 30.03 1017 10 16 N/A
1:15 am 01:15 Cloudy 43 6 34 1 71 71 SE 12 19 30.00 1016 7 11 N/A
1:36 am 01:36 Mostly Cloudy 43 6 39 4 87 87 SE 9 15 30.00 1016 7 11 N/A
1:55 am 01:55 Mostly Cloudy 43 6 43 6 100 100 SE 8 13 30.00 1016 7 11 N/A
2:16 am 02:16 Cloudy 43 6 N/A N/A SSE 12 19 30.00 1016 5 8 N/A
2:36 am 02:36 Cloudy 43 6 N/A N/A SSE 9 15 30.00 1016 4 6 N/A
2:55 am 02:55 Cloudy 43 6 N/A N/A SE 8 13 30.00 1016 4 6 N/A
3:16 am 03:16 Cloudy 43 6 N/A N/A SSE 6 9 30.00 1016 4 6 N/A
3:36 am 03:36 Cloudy 43 6 N/A N/A SE 6 9 29.97 1015 3 4 N/A
3:55 am 03:55 Cloudy 43 6 N/A N/A SSE 10 17 30.00 1016 3 4 N/A
4:16 am 04:16 Cloudy 43 6 N/A N/A ESE 14 22 29.94 1014 3 5 N/A
4:36 am 04:36 Cloudy 43 6 N/A N/A SE 10 17 29.94 1014 3 4 N/A
4:55 am 04:55 Cloudy 43 6 N/A N/A SE 14 22 29.91 1013 3 5 N/A
5:16 am 05:16 Cloudy 43 6 N/A N/A SE 15 24 29.91 1013 1 2 N/A
5:36 am 05:36 Mostly Cloudy 43 6 N/A N/A SE 13 20 29.88 1012 5 8 N/A
5:55 am 05:55 Mostly Cloudy 43 6 N/A N/A SSE 12 19 29.88 1012 5 8 N/A
6:16 am 06:16 Cloudy 45 7 N/A N/A SSE 13 20 29.88 1012 7 11 N/A
6:36 am 06:36 Cloudy 45 7 N/A N/A SSE 12 19 29.85 1011 7 11 N/A
6:55 am 06:55 Mostly Cloudy 45 7 N/A N/A S 9 15 29.88 1012 7 11 N/A
7:16 am 07:16 Cloudy 46 8 N/A N/A S 10 17 29.88 1012 7 11 N/A
7:35 am 07:35 Cloudy 46 8 N/A N/A SSW 13 20 29.91 1013 10 16 N/A
7:55 am 07:55 Cloudy 46 8 N/A N/A SSW 12 19 29.91 1013 10 16 N/A
8:16 am 08:16 Cloudy 46 8 N/A N/A SSW 12 19 29.91 1013 7 11 N/A
10:35 am 10:35 Cloudy 50 10 50 10 100 100 WSW 17 28 30.00 1016 7 11 N/A
10:56 am 10:56 Cloudy 50 10 45 7 82 82 WSW 18 30 30.00 1016 7 11 N/A
11:16 am 11:16 Cloudy 50 10 43 6 76 76 W 16 26 30.03 1017 10 16 N/A
11:35 am 11:35 Cloudy 50 10 41 5 71 71 W 15 24 30.03 1017 10 16 N/A
11:56 am 11:56 Cloudy 50 10 41 5 71 71 WSW 14 22 30.03 1017 10 16 N/A
12:16 pm 12:16 Cloudy 50 10 41 5 71 71 WSW 12 19 30.06 1018 10 16 N/A
12:35 pm 12:35 Cloudy 48 9 43 6 82 82 WSW 9 15 30.06 1018 7 11 N/A
12:56 pm 12:56 Cloudy 48 9 43 6 82 82 WSW 13 20 30.06 1018 10 16 N/A
1:15 pm 13:15 Cloudy 48 9 43 6 82 82 WSW 16 26 30.06 1018 7 11 N/A
1:36 pm 13:36 Cloudy 50 10 43 6 76 76 WSW 15 24 30.06 1018 7 11 N/A
1:56 pm 13:56 Cloudy 50 10 43 6 76 76 WSW 14 22 30.09 1019 7 11 N/A
2:15 pm 14:15 Cloudy 50 10 41 5 71 71 WSW 15 24 30.09 1019 10 16 N/A
2:36 pm 14:36 Cloudy 50 10 39 4 67 67 WSW 13 20 30.09 1019 10 16 N/A
2:56 pm 14:56 Cloudy 52 11 41 5 67 67 WSW 13 20 30.09 1019 10 16 N/A
3:15 pm 15:15 Cloudy 52 11 39 4 62 62 WSW 14 22 30.09 1019 10 16 N/A
3:36 pm 15:36 Cloudy 54 12 39 4 58 58 W 13 20 30.09 1019 10 16 N/A
3:56 pm 15:56 Mostly Cloudy 54 12 39 4 58 58 WSW 9 15 30.09 1019 10 16 N/A
4:15 pm 16:15 Mostly Cloudy 54 12 39 4 58 58 W 12 19 30.09 1019 10 16 N/A
4:36 pm 16:36 Mostly Cloudy 54 12 37 3 54 54 WNW 10 17 30.09 1019 10 16 N/A
4:56 pm 16:56 Partly Cloudy 54 12 37 3 54 54 WNW 6 9 30.09 1019 10 16 N/A
5:15 pm 17:15 Sunny 54 12 37 3 54 54 WNW 9 15 30.09 1019 10 16 N/A
5:36 pm 17:36 Sunny 54 12 37 3 54 54 W 6 9 30.09 1019 10 16 N/A
5:56 pm 17:56 Sunny 54 12 37 3 54 54 W 5 7 30.09 1019 10 16 N/A
6:15 pm 18:15 Sunny 54 12 37 3 54 54 W 5 7 30.03 1017 10 16 N/A
6:36 pm 18:36 Sunny 54 12 37 3 54 54 NW 6 9 30.09 1019 10 16 N/A
6:56 pm 18:56 Sunny 52 11 37 3 58 58 WNW 5 7 30.09 1019 10 16 N/A
7:15 pm 19:15 Sunny 52 11 37 3 58 58 N N/A 30.09 1019 10 16 N/A
7:36 pm 19:36 Sunny 50 10 37 3 62 62 WNW 3 6 30.09 1019 10 16 N/A
7:56 pm 19:56 Sunny 50 10 39 4 67 67 N N/A 30.09 1019 10 16 N/A
8:16 pm 20:16 Clear 48 9 39 4 71 71 N N/A 30.09 1019 10 16 N/A
8:36 pm 20:36 Clear 46 8 45 7 93 93 NNE 5 7 30.06 1018 10 16 N/A
8:55 pm 20:55 Clear 45 7 N/A N/A N 5 7 30.06 1018 10 16 N/A
9:16 pm 21:16 Clear 45 7 N/A N/A N 5 7 30.06 1018 7 11 N/A
9:36 pm 21:36 Clear 43 6 N/A N/A N N/A 30.09 1019 7 11 N/A
9:55 pm 21:55 Clear 43 6 N/A N/A N N/A 30.06 1018 5 8 N/A
10:16 pm 22:16 Clear 43 6 N/A N/A N N/A 30.06 1018 5 8 N/A
10:36 pm 22:36 Clear 43 6 N/A N/A NE 3 6 30.06 1018 5 8 N/A
10:56 pm 22:56 Clear 41 5 N/A N/A NE 3 6 30.06 1018 5 8 N/A
11:16 pm 23:16 Clear 41 5 N/A N/A N N/A 30.06 1018 4 6 N/A
11:35 pm 23:35 Clear 41 5 N/A N/A N N/A 30.03 1017 3 5 N/A
11:56 pm 23:56 Clear 39 4 N/A N/A N N/A 30.06 1018 4 6 N/A

Powered by AerisWeather